Date,Time,Wetness (Wet Dry or Ice),Wind Speed (m/s),Temperature (C),Humidity (%),Pressure (mb),Radiation (W/m^2)
2018-12-17,06:10:00,DRY,2.40,6.73,17.3,777.00,1.3
2018-12-17,06:15:00,DRY,1.05,6.85,19.0,777.00,0.9
2018-12-17,06:20:00,DRY,1.60,6.87,19.3,777.00,0.8
2018-12-17,06:25:00,DRY,0.80,7.25,21.0,777.00,0.4
2018-12-17,06:30:00,DRY,1.10,7.07,21.0,777.00,1.0
2018-12-17,06:35:00,DRY,1.00,7.05,22.0,777.00,1.8
2018-12-17,06:40:00,DRY,0.27,6.77,21.3,777.00,1.7
2018-12-17,06:45:00,DRY,0.30,6.45,23.5,777.00,1.2
2018-12-17,06:50:00,DRY,0.47,6.40,24.3,777.00,1.4
2018-12-17,06:55:00,DRY,0.95,6.60,25.5,777.00,2.1
2018-12-17,07:00:00,DRY,0.80,6.80,23.0,777.00,1.5
2018-12-17,07:05:00,DRY,0.65,6.80,23.5,777.00,1.4
2018-12-17,07:10:00,DRY,0.97,6.60,23.7,777.00,1.6
2018-12-17,07:15:00,DRY,0.90,6.85,23.5,777.00,1.3
2018-12-17,07:20:00,DRY,0.97,7.00,21.7,777.00,1.1
2018-12-17,07:25:00,DRY,1.20,7.20,23.0,777.00,0.6
2018-12-17,07:30:00,DRY,1.60,7.03,23.0,777.00,1.2
2018-12-17,07:35:00,DRY,1.55,6.80,19.5,777.00,0.9
2018-12-17,07:40:00,DRY,1.23,6.83,20.0,777.00,0.9
2018-12-17,07:45:00,DRY,2.00,7.00,23.0,777.00,2.4
2018-12-17,07:50:00,DRY,1.90,7.17,23.0,777.33,2.6
2018-12-17,07:55:00,DRY,2.00,7.45,23.0,778.00,6.6
2018-12-17,08:00:00,DRY,1.23,6.83,21.0,777.33,7.6
2018-12-17,08:05:00,DRY,2.95,7.10,23.5,777.00,9.8
2018-12-17,08:10:00,DRY,3.00,7.40,24.0,777.00,12.1
2018-12-17,08:15:00,DRY,1.50,7.25,24.0,777.00,14.2
2018-12-17,08:20:00,DRY,2.33,6.93,21.7,777.00,15.9
2018-12-17,08:25:00,DRY,2.35,7.05,23.0,777.00,16.6
2018-12-17,08:30:00,DRY,2.20,7.17,22.0,777.00,19.0
2018-12-17,08:35:00,DRY,1.95,7.25,21.0,777.00,22.4
2018-12-17,08:40:00,DRY,1.40,7.40,18.3,777.67,81.7
2018-12-17,08:45:00,DRY,2.00,7.85,18.5,778.00,163.3
2018-12-17,08:50:00,DRY,2.20,8.10,21.3,777.67,181.0
2018-12-17,08:55:00,DRY,2.10,8.20,22.0,777.50,199.6
2018-12-17,09:00:00,DRY,1.70,8.30,21.0,778.00,216.9
2018-12-17,09:05:00,DRY,1.50,8.45,20.0,778.00,236.3
2018-12-17,09:10:00,DRY,1.63,8.03,22.0,778.00,253.6
2018-12-17,09:15:00,DRY,2.90,7.90,22.5,778.00,272.6
2018-12-17,09:20:00,DRY,1.43,8.17,22.0,778.00,289.2
2018-12-17,09:25:00,DRY,1.20,8.85,21.0,778.00,307.8
2018-12-17,09:30:00,DRY,1.07,9.10,20.0,778.00,325.0
2018-12-17,09:35:00,DRY,0.55,9.55,19.5,778.00,340.9
2018-12-17,09:40:00,DRY,1.63,9.40,19.7,777.67,358.9
2018-12-17,09:45:00,DRY,1.85,9.05,20.5,777.00,376.2
2018-12-17,09:50:00,DRY,1.83,9.07,20.0,777.00,391.0
2018-12-17,09:55:00,DRY,1.50,9.05,20.5,777.50,408.0
2018-12-17,10:00:00,DRY,1.57,9.07,20.3,778.00,423.9
2018-12-17,10:05:00,DRY,2.60,8.65,21.0,777.50,438.8
2018-12-17,10:10:00,DRY,1.23,9.27,20.3,777.67,454.3
2018-12-17,10:15:00,DRY,1.15,9.85,19.5,777.50,469.8
2018-12-17,10:20:00,DRY,1.27,9.63,19.7,777.00,483.8
2018-12-17,10:25:00,DRY,1.25,9.85,20.0,777.50,498.1
2018-12-17,10:30:00,DRY,1.13,9.73,20.0,777.67,511.8
2018-12-17,10:35:00,DRY,0.65,10.15,20.5,777.00,525.8
2018-12-17,10:40:00,DRY,0.97,10.17,20.7,777.33,539.0
2018-12-17,10:45:00,DRY,1.85,9.55,24.0,777.00,550.4
2018-12-17,10:50:00,DRY,0.67,9.70,24.0,777.33,563.0
2018-12-17,10:55:00,DRY,1.25,9.45,27.0,777.50,574.9
2018-12-17,11:00:00,DRY,1.43,9.60,24.3,777.67,585.7
2018-12-17,11:05:00,DRY,0.85,10.10,25.0,778.00,595.9
2018-12-17,11:10:00,DRY,1.20,10.07,25.3,777.67,606.4
2018-12-17,11:15:00,DRY,0.85,9.55,27.0,777.00,616.8
2018-12-17,11:20:00,DRY,2.30,9.73,27.0,777.00,627.1
2018-12-17,11:25:00,DRY,1.40,9.40,28.0,777.00,637.0
2018-12-17,11:30:00,DRY,2.70,9.30,28.3,777.00,643.2
2018-12-17,11:35:00,DRY,1.15,9.55,28.5,777.00,652.4
2018-12-17,11:40:00,DRY,0.50,10.07,29.0,777.00,660.2
2018-12-17,11:45:00,DRY,0.55,10.40,29.0,777.00,667.8
2018-12-17,11:50:00,DRY,1.00,10.40,29.7,777.00,675.0
2018-12-17,11:55:00,DRY,2.15,10.05,29.0,777.00,680.4
2018-12-17,12:00:00,DRY,2.07,9.70,31.3,777.00,687.3
2018-12-17,12:05:00,DRY,1.50,9.80,32.5,777.00,693.6
2018-12-17,12:10:00,DRY,1.23,9.80,32.0,777.00,699.0
2018-12-17,12:15:00,DRY,2.10,9.75,32.0,777.00,704.2
2018-12-17,12:20:00,DRY,0.67,9.67,34.3,777.00,707.4
2018-12-17,12:25:00,DRY,1.35,10.10,32.5,777.00,712.0
2018-12-17,12:30:00,DRY,1.37,10.13,33.7,777.00,713.7
2018-12-17,12:35:00,DRY,1.40,10.05,33.5,777.00,716.9
2018-12-17,12:40:00,DRY,1.97,9.83,35.3,777.00,718.4
2018-12-17,12:45:00,DRY,1.75,9.50,37.0,777.00,721.8
2018-12-17,12:50:00,DRY,1.57,9.77,38.7,777.00,721.6
2018-12-17,12:55:00,DRY,1.65,9.85,37.5,777.00,722.8
2018-12-17,13:00:00,DRY,1.40,10.03,38.0,777.00,724.1
2018-12-17,13:05:00,DRY,1.40,10.15,37.0,777.00,723.7
2018-12-17,13:10:00,DRY,0.77,10.73,37.3,777.00,724.3
2018-12-17,13:15:00,DRY,1.40,10.20,39.0,777.00,723.5
2018-12-17,13:20:00,DRY,0.87,10.27,38.3,777.00,722.5
2018-12-17,13:25:00,DRY,1.15,10.30,39.5,776.50,721.0
2018-12-17,13:30:00,DRY,0.70,10.90,40.0,777.00,717.3
2018-12-17,13:35:00,DRY,0.60,10.30,43.0,776.00,719.6
2018-12-17,13:40:00,DRY,1.30,10.60,42.0,776.67,714.9
2018-12-17,13:45:00,DRY,1.15,10.50,45.5,776.00,710.7
2018-12-17,13:50:00,DRY,0.60,10.37,45.7,776.00,705.7
2018-12-17,13:55:00,DRY,2.10,10.20,46.5,776.00,702.0
2018-12-17,14:00:00,DRY,1.63,9.80,48.3,776.00,694.8
2018-12-17,14:05:00,DRY,1.65,9.80,48.0,776.00,691.0
2018-12-17,14:10:00,DRY,1.30,10.43,46.7,776.00,685.8
2018-12-17,14:15:00,DRY,0.85,10.60,47.5,776.00,677.5
2018-12-17,14:20:00,DRY,1.43,10.03,49.0,776.00,672.8
2018-12-17,14:25:00,DRY,0.90,10.75,47.0,776.00,665.9
2018-12-17,14:30:00,DRY,1.63,10.70,47.3,776.00,658.2
2018-12-17,14:35:00,DRY,1.85,10.25,49.0,776.00,650.1
2018-12-17,14:40:00,DRY,1.20,10.40,44.0,776.00,641.7
2018-12-17,14:45:00,DRY,1.40,10.90,44.5,776.00,632.9
2018-12-17,14:50:00,DRY,1.30,10.63,43.0,776.00,625.7
2018-12-17,14:55:00,DRY,1.95,10.80,41.5,776.00,614.2
2018-12-17,15:00:00,DRY,0.90,10.73,43.7,776.00,604.9
2018-12-17,15:05:00,DRY,0.95,10.75,42.5,776.00,593.6
2018-12-17,15:10:00,DRY,1.43,10.90,39.7,776.00,581.3
2018-12-17,15:15:00,DRY,2.00,10.70,34.0,776.00,570.2
2018-12-17,15:20:00,DRY,1.13,10.63,36.3,776.00,555.6
2018-12-17,15:25:00,DRY,1.30,10.30,45.5,776.00,541.9
2018-12-17,15:30:00,DRY,1.20,9.90,50.0,776.00,529.1
2018-12-17,15:35:00,DRY,1.05,9.70,51.5,776.00,512.2
2018-12-17,15:40:00,DRY,0.83,8.93,54.3,776.00,499.5
2018-12-17,15:45:00,DRY,0.90,9.10,57.0,776.00,490.1
2018-12-17,15:50:00,DRY,1.97,9.20,56.3,776.00,472.3
2018-12-17,15:55:00,DRY,1.10,9.20,55.5,776.00,457.2
2018-12-17,16:00:00,DRY,1.27,9.73,55.0,776.00,444.8
2018-12-17,16:05:00,DRY,2.00,9.05,53.0,776.00,430.7
2018-12-17,16:10:00,DRY,1.50,9.97,44.0,776.00,417.1
2018-12-17,16:15:00,DRY,0.85,9.70,47.0,776.00,399.4
2018-12-17,16:20:00,DRY,0.90,8.73,54.0,776.00,383.4
2018-12-17,16:25:00,DRY,1.70,9.20,58.0,776.00,365.1
2018-12-17,16:30:00,DRY,0.77,9.80,56.7,776.00,347.3
2018-12-17,16:35:00,DRY,1.50,9.75,43.0,776.00,332.0
2018-12-17,16:40:00,DRY,1.07,9.70,39.0,776.00,315.9
2018-12-17,16:45:00,DRY,1.50,9.95,36.0,776.00,298.5
2018-12-17,16:50:00,DRY,0.80,10.10,30.7,776.00,282.0
2018-12-17,16:55:00,DRY,1.95,10.15,28.0,776.00,265.0
2018-12-17,17:00:00,DRY,2.93,10.17,25.3,776.00,247.6
2018-12-17,17:05:00,DRY,1.10,10.30,24.5,776.00,229.0
2018-12-17,17:10:00,DRY,0.80,10.33,23.3,776.00,210.8
2018-12-17,17:15:00,DRY,1.20,10.05,23.5,776.00,194.4
2018-12-17,17:20:00,DRY,2.10,9.93,23.0,776.00,176.4
2018-12-17,17:25:00,DRY,2.15,9.85,22.0,776.00,159.9
2018-12-17,17:30:00,DRY,1.77,9.70,25.0,776.00,143.0
2018-12-17,17:35:00,DRY,2.40,9.55,30.5,776.00,122.9
2018-12-17,17:40:00,DRY,3.37,9.27,33.7,776.00,99.3
2018-12-17,17:45:00,DRY,3.35,9.10,37.5,776.00,77.5
2018-12-17,17:50:00,DRY,3.17,8.53,45.7,776.00,58.5
2018-12-17,17:55:00,DRY,1.35,8.95,31.5,776.00,41.1
2018-12-17,18:00:00,DRY,1.00,9.17,24.0,776.00,30.0
2018-12-17,18:05:00,DRY,1.25,9.20,21.5,776.00,18.9
2018-12-17,18:10:00,DRY,2.23,9.13,21.3,776.00,14.6
2018-12-17,18:15:00,DRY,2.75,8.95,20.5,776.50,11.5
2018-12-17,18:20:00,DRY,2.87,8.77,19.0,776.00,6.6
2018-12-17,18:25:00,DRY,2.15,8.75,18.5,777.00,3.9
2018-12-17,18:30:00,DRY,2.37,8.77,19.7,777.00,2.7
2018-12-17,18:35:00,DRY,2.15,8.60,20.5,777.00,1.3
2018-12-17,18:40:00,DRY,1.50,8.67,22.3,777.00,1.8
2018-12-17,18:45:00,DRY,1.55,9.00,23.0,777.00,0.9
2018-12-17,18:50:00,DRY,0.90,8.80,24.7,777.00,1.1
2018-12-17,18:55:00,DRY,0.90,8.70,25.0,777.00,1.1
2018-12-17,19:00:00,DRY,0.73,8.67,25.7,777.00,1.2
2018-12-17,19:05:00,DRY,0.90,8.45,26.0,777.00,1.6
2018-12-17,19:10:00,DRY,0.57,8.27,26.0,777.00,1.1
2018-12-17,19:15:00,DRY,1.10,8.30,26.0,777.00,1.1
2018-12-17,19:20:00,DRY,0.70,8.23,26.0,777.00,0.7
2018-12-17,19:25:00,DRY,0.90,8.30,26.0,777.00,1.1
2018-12-17,19:30:00,DRY,0.93,8.47,26.0,777.00,1.4
2018-12-17,19:35:00,DRY,0.60,8.40,26.0,777.00,1.2
2018-12-17,19:40:00,DRY,1.10,8.57,25.3,777.00,1.5
2018-12-17,19:45:00,DRY,1.40,8.90,24.5,777.00,1.1
2018-12-17,19:50:00,DRY,1.07,8.97,24.3,777.00,1.0
2018-12-17,19:55:00,DRY,1.35,9.00,24.0,777.00,1.2
2018-12-17,20:00:00,DRY,1.43,8.93,24.0,777.00,1.6
2018-12-17,20:05:00,DRY,1.30,9.05,24.0,777.00,1.4
2018-12-17,20:10:00,DRY,1.33,8.97,24.0,777.00,0.9
2018-12-17,20:15:00,DRY,1.90,9.00,24.0,777.00,1.2
2018-12-17,20:20:00,DRY,1.57,9.03,24.0,777.00,0.6
2018-12-17,20:25:00,DRY,1.40,9.15,23.5,777.00,1.4
2018-12-17,20:30:00,DRY,1.43,9.17,23.3,777.00,1.3
2018-12-17,20:35:00,DRY,1.35,9.00,23.0,777.00,1.2
2018-12-17,20:40:00,DRY,0.87,8.77,24.0,777.00,1.2
2018-12-17,20:45:00,DRY,0.20,8.60,24.0,777.00,1.2
2018-12-17,20:50:00,DRY,0.87,8.47,24.7,777.00,1.1
2018-12-17,20:55:00,DRY,1.25,8.50,25.5,777.00,1.1
2018-12-17,21:00:00,DRY,0.93,8.53,25.7,777.00,2.2
2018-12-17,21:05:00,DRY,0.95,8.75,25.0,777.00,1.0
2018-12-17,21:10:00,DRY,1.13,8.80,24.7,777.00,0.4
2018-12-17,21:15:00,DRY,1.40,9.00,24.0,777.00,0.4
2018-12-17,21:20:00,DRY,1.27,9.07,24.0,777.00,1.1
2018-12-17,21:25:00,DRY,1.20,9.25,24.0,777.00,3.3
2018-12-17,21:30:00,DRY,1.07,9.30,23.7,777.00,0.8
2018-12-17,21:35:00,DRY,1.65,9.20,24.0,777.00,1.1
2018-12-17,21:40:00,DRY,1.33,8.97,24.0,777.00,1.4
2018-12-17,21:45:00,DRY,1.25,9.05,24.0,777.00,1.3
2018-12-17,21:50:00,DRY,1.23,9.07,23.0,777.00,1.4
2018-12-17,21:55:00,DRY,1.40,9.00,23.0,777.00,2.5
2018-12-17,22:00:00,DRY,1.23,8.83,23.7,777.00,1.1
2018-12-17,22:05:00,DRY,1.10,8.80,24.0,777.00,1.2
2018-12-17,22:10:00,DRY,1.53,8.83,23.7,777.00,0.5
2018-12-17,22:15:00,DRY,1.40,8.45,24.0,777.50,2.0
2018-12-17,22:20:00,DRY,1.17,8.67,24.0,777.67,1.3
2018-12-17,22:25:00,DRY,1.20,8.85,23.0,778.00,1.6
2018-12-17,22:30:00,DRY,1.37,8.93,23.0,777.33,1.0
2018-12-17,22:35:00,DRY,1.45,8.75,24.0,777.50,1.2
2018-12-17,22:40:00,DRY,1.33,8.43,25.0,777.67,0.8
2018-12-17,22:45:00,DRY,1.10,8.30,25.0,778.00,0.5
2018-12-17,22:50:00,DRY,1.53,8.53,25.0,778.00,1.3
2018-12-17,22:55:00,DRY,1.10,8.70,24.0,778.00,0.8
2018-12-17,23:00:00,DRY,1.47,8.77,24.3,777.67,1.4
2018-12-17,23:05:00,DRY,1.40,8.65,25.0,778.00,1.9
2018-12-17,23:10:00,DRY,1.30,8.67,24.0,777.67,1.0
2018-12-17,23:15:00,DRY,1.65,8.90,24.0,778.00,1.1
2018-12-17,23:20:00,DRY,1.60,8.90,24.0,778.00,1.5
2018-12-17,23:25:00,DRY,1.50,9.10,23.5,778.00,1.9
2018-12-17,23:30:00,DRY,1.90,9.00,23.7,778.00,1.2
2018-12-17,23:35:00,DRY,1.65,8.65,24.5,778.00,1.6
2018-12-17,23:40:00,DRY,1.47,8.80,24.0,778.00,1.6
2018-12-17,23:45:00,DRY,1.95,8.80,24.0,778.00,1.0
2018-12-17,23:50:00,DRY,1.67,8.37,25.0,778.00,1.1
2018-12-17,23:55:00,DRY,1.65,8.60,24.0,778.00,0.6
2018-12-18,00:00:00,DRY,1.37,8.77,24.3,778.00,1.4
2018-12-18,00:05:00,DRY,1.20,8.80,25.0,778.00,0.7
2018-12-18,00:10:00,DRY,1.10,8.83,25.0,778.00,0.9
2018-12-18,00:15:00,DRY,1.20,8.75,25.0,778.00,0.9
2018-12-18,00:20:00,DRY,1.50,8.93,24.3,777.67,1.8
2018-12-18,00:25:00,DRY,1.80,9.05,24.5,777.50,1.0
2018-12-18,00:30:00,DRY,1.73,9.23,24.0,777.67,1.2
2018-12-18,00:35:00,DRY,1.95,9.45,23.5,777.00,0.9
2018-12-18,00:40:00,DRY,2.10,9.47,23.0,777.00,1.0
2018-12-18,00:45:00,DRY,2.50,9.40,23.0,777.00,0.6
2018-12-18,00:50:00,DRY,1.83,9.37,23.7,777.00,0.9
2018-12-18,00:55:00,DRY,2.10,9.00,24.0,777.00,2.0
2018-12-18,01:00:00,DRY,1.73,8.93,24.0,777.00,1.2
2018-12-18,01:05:00,DRY,1.50,8.95,24.0,777.00,1.6
2018-12-18,01:10:00,DRY,1.50,8.80,24.0,777.00,1.2
2018-12-18,01:15:00,DRY,1.45,9.30,23.0,777.00,0.6
2018-12-18,01:20:00,DRY,1.23,9.33,23.0,777.00,1.2
2018-12-18,01:25:00,DRY,1.10,9.20,23.0,777.00,2.0
2018-12-18,01:30:00,DRY,1.83,8.57,24.0,777.00,0.9
2018-12-18,01:35:00,DRY,2.10,8.25,24.0,777.00,1.1
2018-12-18,01:40:00,DRY,1.50,8.40,23.7,777.00,1.4
2018-12-18,01:45:00,DRY,1.25,8.50,23.0,777.00,1.6
2018-12-18,01:50:00,DRY,1.67,8.30,23.7,777.00,1.1
2018-12-18,01:55:00,DRY,1.60,8.05,23.5,777.00,0.8
2018-12-18,02:00:00,DRY,1.70,8.20,23.0,777.00,1.5
2018-12-18,02:05:00,DRY,1.55,8.10,23.0,777.00,0.6
2018-12-18,02:10:00,DRY,1.30,8.07,23.3,777.00,1.1
2018-12-18,02:15:00,DRY,0.90,7.95,23.5,777.00,1.4
2018-12-18,02:20:00,DRY,1.27,7.90,23.0,777.00,1.0
2018-12-18,02:25:00,DRY,1.50,7.75,23.0,777.00,0.5
2018-12-18,02:30:00,DRY,1.27,7.70,23.0,777.00,1.3
2018-12-18,02:35:00,DRY,1.00,7.70,22.5,777.00,1.8
2018-12-18,02:40:00,DRY,1.50,8.23,21.7,777.00,0.6
2018-12-18,02:45:00,DRY,1.85,8.25,22.5,777.00,0.3
2018-12-18,02:50:00,DRY,1.37,8.10,22.0,777.00,1.3
2018-12-18,02:55:00,DRY,0.95,8.00,22.0,777.00,1.5
2018-12-18,03:00:00,DRY,1.07,7.93,22.0,777.00,0.9
2018-12-18,03:05:00,DRY,0.75,7.80,22.0,777.00,1.2
2018-12-18,03:10:00,DRY,0.83,8.23,22.7,776.67,0.8
2018-12-18,03:15:00,DRY,1.20,8.40,23.5,777.00,1.0
2018-12-18,03:20:00,DRY,1.33,8.63,24.0,777.00,1.2
2018-12-18,03:25:00,DRY,1.00,8.80,23.5,777.00,2.0
2018-12-18,03:30:00,DRY,0.57,8.63,23.7,777.00,2.4
2018-12-18,03:35:00,DRY,0.85,8.80,24.0,777.00,2.5
2018-12-18,03:40:00,DRY,0.83,8.83,23.3,777.00,1.4
2018-12-18,03:45:00,DRY,0.75,8.95,23.5,777.00,1.6
2018-12-18,03:50:00,DRY,0.93,9.07,23.7,777.00,2.1
2018-12-18,03:55:00,DRY,1.10,8.80,23.5,777.00,1.6
2018-12-18,04:00:00,DRY,0.93,8.33,24.7,776.67,1.1
2018-12-18,04:05:00,DRY,1.00,8.15,25.0,777.00,1.0
2018-12-18,04:10:00,DRY,1.23,8.37,25.0,776.00,1.0
2018-12-18,04:15:00,DRY,0.90,8.35,24.0,776.50,1.9
2018-12-18,04:20:00,DRY,1.17,8.47,24.0,776.00,1.3
2018-12-18,04:25:00,DRY,1.50,8.45,24.5,776.00,1.9
2018-12-18,04:30:00,DRY,1.43,8.70,24.0,776.33,1.3
2018-12-18,04:35:00,DRY,1.70,8.50,24.0,776.00,1.9
2018-12-18,04:40:00,DRY,1.63,8.63,24.0,776.00,1.6
2018-12-18,04:45:00,DRY,1.45,8.60,24.0,776.00,1.1
2018-12-18,04:50:00,DRY,1.27,8.73,23.3,776.00,1.5
2018-12-18,04:55:00,DRY,1.20,9.10,23.0,776.00,1.2
2018-12-18,05:00:00,DRY,1.17,8.97,22.7,776.00,1.4
2018-12-18,05:05:00,DRY,0.85,9.15,23.0,776.00,2.2
2018-12-18,05:10:00,DRY,0.87,9.20,23.0,776.00,2.1
2018-12-18,05:15:00,DRY,0.65,9.65,22.0,776.00,1.0
2018-12-18,05:20:00,DRY,1.30,9.43,22.7,776.00,2.1
2018-12-18,05:25:00,DRY,1.50,8.95,22.0,776.00,1.2
2018-12-18,05:30:00,DRY,1.13,8.97,22.3,776.00,0.8
2018-12-18,05:35:00,DRY,1.45,8.90,21.5,776.00,1.5
2018-12-18,05:40:00,DRY,1.00,9.00,22.3,776.00,1.1
2018-12-18,05:45:00,DRY,1.60,8.70,22.0,776.00,2.1
2018-12-18,05:50:00,DRY,1.80,8.50,22.3,776.00,1.4
2018-12-18,05:55:00,DRY,1.50,8.45,22.5,776.00,1.1
2018-12-18,06:00:00,DRY,1.57,8.93,23.0,776.00,1.0
2018-12-18,06:05:00,DRY,1.45,9.15,22.5,776.00,1.3
2018-12-18,06:10:00,DRY,1.37,9.37,22.3,776.00,1.4
2018-12-18,06:15:00,DRY,1.20,8.75,23.5,776.00,1.1
2018-12-18,06:20:00,DRY,1.90,8.67,24.0,776.00,0.8
2018-12-18,06:25:00,DRY,1.50,9.25,22.5,776.00,1.4
2018-12-18,06:30:00,DRY,0.63,9.40,22.0,776.00,1.3
2018-12-18,06:35:00,DRY,0.90,8.95,23.0,776.00,1.1
2018-12-18,06:40:00,DRY,1.13,8.73,23.0,776.33,0.8
2018-12-18,06:45:00,DRY,1.60,8.60,23.5,776.00,1.0
2018-12-18,06:50:00,DRY,2.57,8.83,22.7,776.67,0.5
2018-12-18,06:55:00,DRY,2.60,9.05,21.5,777.00,1.2
2018-12-18,07:00:00,DRY,2.23,8.67,22.0,777.00,1.1
2018-12-18,07:05:00,DRY,2.05,8.10,23.5,777.00,1.6
2018-12-18,07:10:00,DRY,1.90,8.30,23.0,777.00,1.1
2018-12-18,07:15:00,DRY,1.90,8.35,23.0,777.00,1.3
2018-12-18,07:20:00,DRY,1.90,8.43,23.0,777.00,0.4
2018-12-18,07:25:00,DRY,1.65,8.70,22.0,777.00,1.1
2018-12-18,07:30:00,DRY,2.30,8.50,22.0,777.00,1.4
2018-12-18,07:35:00,DRY,2.30,8.35,23.5,777.00,0.9
2018-12-18,07:40:00,DRY,2.67,8.20,23.7,777.00,1.6
2018-12-18,07:45:00,DRY,2.50,8.25,23.5,777.00,2.8
2018-12-18,07:50:00,DRY,2.30,8.33,21.7,777.00,4.2
2018-12-18,07:55:00,DRY,2.20,8.30,22.0,777.00,5.7
2018-12-18,08:00:00,DRY,2.43,8.33,21.3,777.00,8.4
2018-12-18,08:05:00,DRY,2.15,8.15,21.0,777.00,10.8
2018-12-18,08:10:00,DRY,2.27,8.17,21.0,777.00,11.9
2018-12-18,08:15:00,DRY,1.85,8.05,21.0,777.00,14.9
2018-12-18,08:20:00,DRY,1.73,7.97,20.7,777.00,16.7
2018-12-18,08:25:00,DRY,1.50,7.95,20.5,777.00,16.8
2018-12-18,08:30:00,DRY,1.73,8.30,19.7,777.00,18.8
2018-12-18,08:35:00,DRY,1.70,8.40,19.5,777.00,22.6
2018-12-18,08:40:00,DRY,1.70,8.40,19.3,777.00,68.3
2018-12-18,08:45:00,DRY,1.80,8.85,18.0,777.50,162.4
2018-12-18,08:50:00,DRY,2.53,9.00,17.7,777.00,180.1
2018-12-18,08:55:00,DRY,2.55,8.85,18.0,777.00,197.9
2018-12-18,09:00:00,DRY,2.53,8.83,18.0,777.67,216.1
2018-12-18,09:05:00,DRY,2.30,8.95,17.5,778.00,235.4
2018-12-18,09:10:00,DRY,2.37,9.10,16.7,778.00,253.4
2018-12-18,09:15:00,DRY,2.45,8.95,18.5,778.00,270.9
2018-12-18,09:20:00,DRY,2.23,8.70,19.3,778.00,288.8
2018-12-18,09:25:00,DRY,2.55,8.80,18.5,778.00,306.4
2018-12-18,09:30:00,DRY,2.47,9.00,17.0,778.00,323.9
2018-12-18,09:35:00,DRY,2.40,9.35,17.0,778.00,340.7
2018-12-18,09:40:00,DRY,2.17,9.60,17.3,778.00,357.9
2018-12-18,09:45:00,DRY,2.25,9.55,16.5,777.50,374.2
2018-12-18,09:50:00,DRY,2.23,9.67,18.0,778.00,391.5
2018-12-18,09:55:00,DRY,1.60,9.95,19.0,777.50,407.3
2018-12-18,10:00:00,DRY,1.77,10.17,21.0,778.00,423.6
2018-12-18,10:05:00,DRY,2.00,10.15,22.0,778.00,439.7
2018-12-18,10:10:00,DRY,2.50,10.33,20.7,778.00,455.2
2018-12-18,10:15:00,DRY,2.55,10.35,21.5,778.00,469.8
2018-12-18,10:20:00,DRY,1.90,10.33,21.7,778.00,485.8
2018-12-18,10:25:00,DRY,1.55,10.25,22.5,778.00,499.1
2018-12-18,10:30:00,DRY,1.27,9.57,22.3,778.00,512.6
2018-12-18,10:35:00,DRY,1.70,9.70,24.5,778.00,526.2
2018-12-18,10:40:00,DRY,1.63,9.97,25.0,778.00,539.5
2018-12-18,10:45:00,DRY,1.70,10.20,26.0,778.00,552.2
2018-12-18,10:50:00,DRY,1.13,10.10,24.3,778.00,564.7
2018-12-18,10:55:00,DRY,1.25,9.70,25.0,778.00,575.5
2018-12-18,11:00:00,DRY,1.10,9.87,25.3,778.00,587.8
2018-12-18,11:05:00,DRY,1.40,10.00,26.0,778.00,598.0
2018-12-18,11:10:00,DRY,1.83,9.70,26.3,778.00,609.3
2018-12-18,11:15:00,DRY,1.55,9.80,20.0,778.00,619.7
2018-12-18,11:20:00,DRY,2.27,9.73,21.3,778.00,630.4
2018-12-18,11:25:00,DRY,1.45,9.65,26.5,778.00,638.0
2018-12-18,11:30:00,DRY,1.47,9.43,27.3,778.00,647.9
2018-12-18,11:35:00,DRY,2.05,9.65,23.5,778.00,656.8
2018-12-18,11:40:00,DRY,2.10,9.83,20.7,778.00,663.7
2018-12-18,11:45:00,DRY,1.85,9.80,21.5,778.00,672.0
2018-12-18,11:50:00,DRY,1.17,10.13,21.7,778.00,679.1
2018-12-18,11:55:00,DRY,2.05,10.20,22.5,777.50,685.9
2018-12-18,12:00:00,DRY,1.57,10.20,22.7,777.00,692.1
2018-12-18,12:05:00,DRY,1.90,10.10,22.5,777.00,698.0
2018-12-18,12:10:00,DRY,1.83,10.07,22.7,777.00,702.3
2018-12-18,12:15:00,DRY,1.60,10.10,24.5,777.00,708.5
2018-12-18,12:20:00,DRY,1.63,10.10,26.0,777.00,713.5
2018-12-18,12:25:00,DRY,2.00,10.35,24.0,777.00,716.0
2018-12-18,12:30:00,DRY,1.47,10.53,25.0,777.00,720.9
2018-12-18,12:35:00,DRY,1.25,10.90,32.0,777.00,725.3
2018-12-18,12:40:00,DRY,1.07,11.20,36.0,777.00,726.0
2018-12-18,12:45:00,DRY,1.10,11.35,37.5,777.00,728.1
2018-12-18,12:50:00,DRY,1.40,10.93,37.3,777.00,729.4
2018-12-18,12:55:00,DRY,1.05,11.30,36.5,777.00,727.2
2018-12-18,13:00:00,DRY,1.40,11.43,37.3,777.00,730.6
2018-12-18,13:05:00,DRY,0.75,10.95,37.5,777.00,731.0
2018-12-18,13:10:00,DRY,1.10,11.33,36.0,777.00,730.4
2018-12-18,13:15:00,DRY,0.95,11.45,34.0,777.00,728.5
2018-12-18,13:20:00,DRY,1.40,11.23,36.7,777.00,727.9
2018-12-18,13:25:00,DRY,0.90,11.20,40.0,777.00,727.3
2018-12-18,13:30:00,DRY,1.30,10.70,46.0,777.00,721.7
2018-12-18,13:35:00,DRY,1.30,10.20,48.0,777.00,706.6
2018-12-18,13:40:00,DRY,0.83,10.03,49.0,777.00,709.3
2018-12-18,13:45:00,DRY,0.80,10.50,48.0,777.00,701.0
2018-12-18,13:50:00,DRY,1.00,10.37,46.0,777.00,702.7
2018-12-18,13:55:00,DRY,0.45,10.80,43.0,776.50,700.8
2018-12-18,14:00:00,DRY,0.93,10.97,42.0,776.00,694.6
2018-12-18,14:05:00,DRY,0.75,10.85,42.5,776.50,686.2
2018-12-18,14:10:00,DRY,1.13,10.73,34.3,776.00,679.9
2018-12-18,14:15:00,DRY,0.85,10.60,39.5,776.00,675.3
2018-12-18,14:20:00,DRY,0.83,10.73,40.7,776.00,670.8
2018-12-18,14:25:00,DRY,0.75,10.65,38.0,776.00,663.4
2018-12-18,14:30:00,DRY,0.73,11.00,37.0,776.00,659.1
2018-12-18,14:35:00,DRY,1.10,10.90,39.5,776.00,649.3
2018-12-18,14:40:00,DRY,1.00,10.70,43.7,776.00,640.5
2018-12-18,14:45:00,DRY,0.95,10.30,47.5,776.00,630.9
2018-12-18,14:50:00,DRY,1.10,10.33,48.0,776.00,619.2
2018-12-18,14:55:00,DRY,1.05,10.45,47.5,776.00,607.1
2018-12-18,15:00:00,DRY,1.00,10.13,49.0,776.00,600.7
2018-12-18,15:05:00,DRY,1.25,10.40,48.5,776.00,586.5
2018-12-18,15:10:00,DRY,1.17,10.20,47.7,776.00,579.7
2018-12-18,15:15:00,DRY,1.95,9.85,49.5,776.00,570.8
2018-12-18,15:20:00,DRY,1.53,9.77,48.0,776.00,558.2
2018-12-18,15:25:00,DRY,0.85,10.05,46.5,776.00,546.5
2018-12-18,15:30:00,DRY,0.97,9.47,46.7,776.00,533.5
2018-12-18,15:35:00,DRY,0.70,9.25,44.0,776.00,524.6
2018-12-18,15:40:00,DRY,1.20,9.50,41.3,776.00,510.6
2018-12-18,15:45:00,DRY,1.00,9.80,40.5,776.00,500.4
2018-12-18,15:50:00,DRY,1.17,9.27,39.0,776.00,486.2
2018-12-18,15:55:00,DRY,1.10,8.55,36.0,776.00,472.4
2018-12-18,16:00:00,DRY,0.97,8.27,31.7,776.00,453.7
2018-12-18,16:05:00,DRY,0.95,8.75,32.5,776.00,437.6
2018-12-18,16:10:00,DRY,1.20,9.67,21.0,776.00,424.4
2018-12-18,16:15:00,DRY,1.25,10.15,21.0,776.00,409.2
2018-12-18,16:20:00,DRY,1.10,10.23,21.0,776.00,393.2
2018-12-18,16:25:00,DRY,1.15,10.20,20.0,776.00,375.9
2018-12-18,16:30:00,DRY,1.23,10.27,20.0,776.00,360.1
2018-12-18,16:35:00,DRY,1.45,10.10,21.5,776.50,342.4
2018-12-18,16:40:00,DRY,1.53,9.67,22.0,776.67,323.0
2018-12-18,16:45:00,DRY,1.70,9.15,23.0,777.00,306.2
2018-12-18,16:50:00,DRY,2.13,8.77,23.3,777.00,288.4
2018-12-18,16:55:00,DRY,1.70,8.75,22.0,777.00,271.0
2018-12-18,17:00:00,DRY,2.63,8.87,22.0,777.00,252.6
2018-12-18,17:05:00,DRY,2.40,8.30,23.0,777.00,234.8
2018-12-18,17:10:00,DRY,2.70,8.27,23.0,777.00,216.9
2018-12-18,17:15:00,DRY,3.15,8.30,21.5,777.00,199.4
2018-12-18,17:20:00,DRY,3.33,8.40,21.0,777.00,181.9
2018-12-18,17:25:00,DRY,3.50,8.40,21.0,777.00,165.0
2018-12-18,17:30:00,DRY,2.97,8.40,21.3,777.00,148.4
2018-12-18,17:35:00,DRY,3.35,8.25,22.0,777.00,127.8
2018-12-18,17:40:00,DRY,3.53,8.40,21.0,777.00,104.1
2018-12-18,17:45:00,DRY,3.45,8.75,19.0,777.00,81.5
2018-12-18,17:50:00,DRY,2.97,8.30,20.0,777.00,61.8
2018-12-18,17:55:00,DRY,3.90,8.40,19.5,777.00,44.6
2018-12-18,18:00:00,DRY,3.87,8.37,19.7,777.00,31.2
2018-12-18,18:05:00,DRY,4.35,8.25,20.0,777.00,19.9
2018-12-18,18:10:00,DRY,3.73,8.20,19.7,777.00,15.2
2018-12-18,18:15:00,DRY,4.70,8.15,19.5,777.00,11.8
2018-12-18,18:20:00,DRY,5.67,8.03,19.3,777.00,8.4
2018-12-18,18:25:00,DRY,5.00,7.90,19.0,777.00,4.0
2018-12-18,18:30:00,DRY,5.27,7.90,18.7,777.00,2.7
2018-12-18,18:35:00,DRY,4.60,8.05,18.0,777.00,1.5
2018-12-18,18:40:00,DRY,4.67,8.03,18.7,777.00,1.2
2018-12-18,18:45:00,DRY,4.95,7.95,19.0,777.00,0.8
2018-12-18,18:50:00,DRY,5.73,7.90,19.3,777.00,1.2
2018-12-18,18:55:00,DRY,5.10,7.95,20.0,777.00,1.9
2018-12-18,19:00:00,DRY,4.43,7.90,18.3,777.00,1.2
2018-12-18,19:05:00,DRY,4.90,7.95,18.5,777.00,1.1
2018-12-18,19:10:00,DRY,5.23,7.97,19.7,777.00,1.4
2018-12-18,19:15:00,DRY,4.50,7.95,19.0,777.00,1.2
2018-12-18,19:20:00,DRY,4.73,7.87,20.3,777.00,1.2
2018-12-18,19:25:00,DRY,5.40,7.95,19.5,777.00,1.1
2018-12-18,19:30:00,DRY,4.30,7.83,20.0,777.00,1.3
2018-12-18,19:35:00,DRY,4.75,7.75,20.0,777.00,2.2
2018-12-18,19:40:00,DRY,3.33,7.80,19.7,777.00,1.3
2018-12-18,19:45:00,DRY,4.20,7.65,19.5,777.00,1.2
2018-12-18,19:50:00,DRY,4.17,7.57,19.3,777.00,1.1
2018-12-18,19:55:00,DRY,4.70,7.75,19.0,777.00,1.6
2018-12-18,20:00:00,DRY,4.47,7.80,18.7,777.00,1.4
2018-12-18,20:05:00,DRY,5.10,7.80,19.0,777.00,1.1
2018-12-18,20:10:00,DRY,4.97,7.87,19.0,777.00,1.3
2018-12-18,20:15:00,DRY,4.70,7.75,18.0,778.00,1.2
2018-12-18,20:20:00,DRY,5.27,7.77,18.0,778.00,1.3
2018-12-18,20:25:00,DRY,4.95,7.85,18.0,778.00,1.1
2018-12-18,20:30:00,DRY,4.80,7.83,18.0,778.00,1.0
2018-12-18,20:35:00,DRY,4.30,7.70,17.5,778.00,1.2
2018-12-18,20:40:00,DRY,4.13,7.83,19.7,778.00,1.0
2018-12-18,20:45:00,DRY,4.40,7.90,21.5,778.00,1.1
2018-12-18,20:50:00,DRY,3.80,7.83,19.3,778.00,0.5
2018-12-18,20:55:00,DRY,5.00,7.60,16.5,778.00,2.0